When you browse on this site, cookies collect data to enhance your experience and personalize the content and advertising you see.
Visit our Privacy Policy to learn more. By continuing to use the site, you agree to this use of cookies and data.
  • în România
  • Lista ţărilor
  • Pe 7 zile
  • Temperatura apei
  • Hartă satelitară
  • Meteo pe hartă
  • Widget-uri
  • user-avatar
    Intrare

    Meteo pe oră la Qui Nhon

    Astăzi, 21 Mai, Marţi

    Timp Temperatura Precipitaţii Vânt Presiune Umiditate
    00:00 +30°C° 0 mm 1 m/s 754 mmHg 82%
    01:00 +30°C° 0 mm 1 m/s 754 mmHg 82%
    02:00 +30°C° 0 mm 1 m/s 754 mmHg 82%
    03:00 +29°C° 0 mm 1 m/s 754 mmHg 81%
    04:00 +29°C° 0 mm 1 m/s 754 mmHg 81%
    05:00 +30°C° 0 mm 1 m/s 754 mmHg 78%
    06:00 +31°C° 0 mm 1 m/s 754 mmHg 74%
    07:00 +32°C° 0 mm 1 m/s 754 mmHg 71%
    08:00 +34°C° 0 mm 1 m/s 754 mmHg 63%
    09:00 +37°C° 0 mm 1 m/s 754 mmHg 54%
    10:00 +37°C° 0 mm 0 m/s 754 mmHg 46%
    11:00 +41°C° 0 mm 1 m/s 754 mmHg 44%
    12:00 +41°C° 0 mm 2 m/s 753 mmHg 42%
    13:00 +42°C° 0 mm 3 m/s 753 mmHg 40%
    14:00 +41°C° 0 mm 4 m/s 753 mmHg 46%
    15:00 +38°C° 0 mm 4 m/s 753 mmHg 52%
    16:00 +37°C° 0 mm 4 m/s 752 mmHg 58%
    17:00 +35°C° 0.1 mm 3 m/s 753 mmHg 67%
    18:00 +32°C° 0.1 mm 2 m/s 753 mmHg 76%
    19:00 +30°C° 0.1 mm 2 m/s 754 mmHg 84%
    20:00 +30°C° 0.1 mm 1 m/s 754 mmHg 86%
    21:00 +30°C° 0.1 mm 1 m/s 755 mmHg 87%
    22:00 +27°C° 0.1 mm 0 m/s 756 mmHg 88%
    23:00 +27°C° 0 mm 0 m/s 755 mmHg 88%

    Mâine, 22 Mai, Miercuri

    Timp Temperatura Precipitaţii Vânt Presiune Umiditate
    00:00 +29°C° 0 mm 1 m/s 755 mmHg 87%
    01:00 +29°C° 0 mm 1 m/s 754 mmHg 87%
    02:00 +29°C° 0 mm 1 m/s 754 mmHg 87%
    03:00 +28°C° 0 mm 1 m/s 754 mmHg 86%
    04:00 +28°C° 0 mm 1 m/s 754 mmHg 86%
    05:00 +29°C° 0 mm 1 m/s 754 mmHg 81%
    06:00 +30°C° 0 mm 1 m/s 754 mmHg 76%
    07:00 +31°C° 0 mm 1 m/s 755 mmHg 72%
    08:00 +33°C° 0 mm 1 m/s 755 mmHg 63%
    09:00 +36°C° 0 mm 1 m/s 755 mmHg 54%
    10:00 +39°C° 0 mm 1 m/s 755 mmHg 46%
    11:00 +39°C° 0 mm 2 m/s 754 mmHg 47%
    12:00 +39°C° 0 mm 3 m/s 754 mmHg 47%
    13:00 +40°C° 0 mm 4 m/s 753 mmHg 48%
    14:00 +37°C° 0.1 mm 3 m/s 753 mmHg 54%
    15:00 +36°C° 0.1 mm 3 m/s 752 mmHg 59%
    16:00 +35°C° 0.1 mm 3 m/s 752 mmHg 64%
    17:00 +34°C° 0.6 mm 2 m/s 753 mmHg 70%
    18:00 +32°C° 0.6 mm 2 m/s 753 mmHg 75%
    19:00 +30°C° 0.6 mm 1 m/s 754 mmHg 81%
    20:00 +30°C° 1.5 mm 1 m/s 754 mmHg 82%
    21:00 +30°C° 1.5 mm 1 m/s 755 mmHg 84%
    22:00 +29°C° 1.5 mm 1 m/s 756 mmHg 85%
    23:00 +29°C° 1 mm 2 m/s 755 mmHg 86%

    Poimâine, 23 Mai, Joi

    Timp Temperatura Precipitaţii Vânt Presiune Umiditate
    00:00 +29°C° 1 mm 2 m/s 755 mmHg 87%
    01:00 +28°C° 1 mm 2 m/s 755 mmHg 88%
    02:00 +28°C° 0.2 mm 2 m/s 754 mmHg 88%
    03:00 +28°C° 0.2 mm 2 m/s 754 mmHg 88%
    04:00 +28°C° 0.2 mm 2 m/s 754 mmHg 88%
    05:00 +28°C° 0 mm 1 m/s 754 mmHg 86%
    06:00 +29°C° 0 mm 1 m/s 755 mmHg 84%
    07:00 +29°C° 0 mm 1 m/s 755 mmHg 82%
    08:00 +32°C° 0 mm 1 m/s 755 mmHg 72%
    09:00 +35°C° 0 mm 2 m/s 755 mmHg 62%
    10:00 +37°C° 0 mm 2 m/s 756 mmHg 53%
    11:00 +38°C° 0 mm 2 m/s 755 mmHg 49%
    12:00 +39°C° 0 mm 3 m/s 754 mmHg 46%
    13:00 +40°C° 0 mm 3 m/s 754 mmHg 42%
    14:00 +39°C° 0 mm 3 m/s 753 mmHg 45%
    15:00 +40°C° 0 mm 4 m/s 753 mmHg 47%
    16:00 +38°C° 0 mm 4 m/s 752 mmHg 49%
    17:00 +36°C° 0 mm 4 m/s 753 mmHg 58%
    18:00 +34°C° 0 mm 3 m/s 753 mmHg 66%
    19:00 +31°C° 0 mm 3 m/s 754 mmHg 75%
    20:00 +31°C° 0.1 mm 3 m/s 754 mmHg 76%
    21:00 +30°C° 0.1 mm 2 m/s 755 mmHg 77%
    22:00 +30°C° 0.1 mm 2 m/s 755 mmHg 78%
    23:00 +29°C° 0 mm 2 m/s 755 mmHg 78%

    24 Mai, Vineri

    Timp Temperatura Precipitaţii Vânt Presiune Umiditate
    00:00 +29°C° 0 mm 2 m/s 755 mmHg 77%
    01:00 +29°C° 0 mm 2 m/s 754 mmHg 77%
    02:00 +29°C° 0 mm 2 m/s 754 mmHg 77%
    03:00 +28°C° 0 mm 2 m/s 754 mmHg 77%
    04:00 +28°C° 0 mm 2 m/s 754 mmHg 77%
    05:00 +29°C° 0 mm 2 m/s 754 mmHg 73%
    06:00 +30°C° 0 mm 2 m/s 755 mmHg 69%
    07:00 +31°C° 0 mm 2 m/s 755 mmHg 65%
    08:00 +34°C° 0 mm 3 m/s 755 mmHg 59%
    09:00 +36°C° 0 mm 3 m/s 755 mmHg 54%
    10:00 +38°C° 0 mm 3 m/s 755 mmHg 48%
    11:00 +39°C° 0 mm 3 m/s 755 mmHg 45%
    12:00 +40°C° 0 mm 2 m/s 754 mmHg 42%
    13:00 +41°C° 0 mm 2 m/s 753 mmHg 39%
    14:00 +40°C° 0 mm 3 m/s 753 mmHg 45%
    15:00 +38°C° 0 mm 3 m/s 752 mmHg 51%
    16:00 +36°C° 0 mm 3 m/s 752 mmHg 57%
    17:00 +35°C° 0.6 mm 3 m/s 753 mmHg 65%
    18:00 +33°C° 0.6 mm 3 m/s 753 mmHg 72%
    19:00 +31°C° 0.6 mm 2 m/s 754 mmHg 80%
    20:00 +31°C° 0.1 mm 2 m/s 754 mmHg 81%
    21:00 +30°C° 0.1 mm 2 m/s 755 mmHg 81%
    22:00 +30°C° 0.1 mm 2 m/s 755 mmHg 82%
    23:00 +30°C° 0 mm 2 m/s 754 mmHg 82%

    25 Mai, Sâmbătă

    Timp Temperatura Precipitaţii Vânt Presiune Umiditate
    00:00 +29°C° 0 mm 2 m/s 754 mmHg 82%
    01:00 +29°C° 0 mm 2 m/s 753 mmHg 82%
    02:00 +29°C° 0 mm 2 m/s 753 mmHg 82%
    03:00 +28°C° 0 mm 2 m/s 753 mmHg 82%
    04:00 +28°C° 0 mm 2 m/s 753 mmHg 82%
    05:00 +29°C° 0 mm 2 m/s 753 mmHg 78%
    06:00 +30°C° 0 mm 2 m/s 753 mmHg 74%
    07:00 +31°C° 0 mm 2 m/s 754 mmHg 71%
    08:00 +34°C° 0 mm 2 m/s 754 mmHg 64%
    09:00 +36°C° 0 mm 2 m/s 754 mmHg 57%
    10:00 +38°C° 0 mm 3 m/s 754 mmHg 51%
    11:00 +39°C° 0 mm 3 m/s 753 mmHg 48%
    12:00 +40°C° 0 mm 3 m/s 752 mmHg 44%
    13:00 +42°C° 0 mm 3 m/s 752 mmHg 41%
    14:00 +39°C° 0 mm 3 m/s 751 mmHg 48%
    15:00 +38°C° 0 mm 3 m/s 751 mmHg 54%
    16:00 +36°C° 0 mm 3 m/s 751 mmHg 60%
    17:00 +35°C° 1 mm 3 m/s 751 mmHg 67%
    18:00 +33°C° 1 mm 3 m/s 752 mmHg 74%
    19:00 +31°C° 1 mm 3 m/s 752 mmHg 82%
    20:00 +30°C° 0 mm 2 m/s 753 mmHg 82%
    21:00 +30°C° 0 mm 2 m/s 753 mmHg 83%
    22:00 +30°C° 0 mm 2 m/s 754 mmHg 83%
    23:00 +30°C° 0 mm 2 m/s 753 mmHg 83%

    26 Mai, Duminică

    Timp Temperatura Precipitaţii Vânt Presiune Umiditate
    00:00 +29°C° 0 mm 2 m/s 753 mmHg 83%
    01:00 +29°C° 0 mm 2 m/s 752 mmHg 83%
    02:00 +29°C° 0 mm 2 m/s 752 mmHg 83%
    03:00 +29°C° 0 mm 2 m/s 752 mmHg 83%
    04:00 +29°C° 0 mm 2 m/s 752 mmHg 82%
    05:00 +30°C° 0 mm 2 m/s 752 mmHg 78%
    06:00 +31°C° 0 mm 2 m/s 753 mmHg 73%
    07:00 +33°C° 0 mm 3 m/s 753 mmHg 69%
    08:00 +35°C° 0 mm 3 m/s 753 mmHg 62%
    09:00 +36°C° 0 mm 3 m/s 753 mmHg 56%
    10:00 +38°C° 0 mm 3 m/s 753 mmHg 49%
    11:00 +39°C° 0 mm 3 m/s 752 mmHg 46%
    12:00 +40°C° 0 mm 3 m/s 752 mmHg 43%
    13:00 +42°C° 0 mm 3 m/s 751 mmHg 40%
    14:00 +40°C° 0 mm 3 m/s 751 mmHg 46%
    15:00 +38°C° 0 mm 3 m/s 751 mmHg 51%
    16:00 +37°C° 0 mm 3 m/s 750 mmHg 57%
    17:00 +35°C° 0.7 mm 3 m/s 751 mmHg 65%
    18:00 +33°C° 0.7 mm 3 m/s 752 mmHg 73%
    19:00 +31°C° 0.7 mm 2 m/s 752 mmHg 80%
    20:00 +30°C° 0 mm 2 m/s 752 mmHg 81%
    21:00 +30°C° 0 mm 2 m/s 753 mmHg 82%
    22:00 +29°C° 0 mm 2 m/s 753 mmHg 83%
    23:00 +29°C° 0 mm 2 m/s 753 mmHg 82%
    Arată mai mult